QPF
0.00 0.01 0.01 0.00 0.00 0.00 0.00 0.00 0.00 0.00 0.00 0.00 0.00 0.00 0.00 0.00 0.00 0.00 0.00 0.00 0.00 0.00 0.00 0.00 0.00 0.00 0.00 0.00 0.00 0.00 0.00 0.00 0.00 0.01 0.01 0.01 0.02 0.01 0.01 0.01 0.01 0.01 0.01 0.01
0.00 0.01 0.00 0.00 0.00 0.00 0.00 0.00 0.00 0.00 0.00 0.00 0.00 0.00 0.00 0.00 0.00 0.00 0.00 0.00 0.00 0.00 0.00 0.00 0.00 0.00 0.00 0.00 0.00 0.00 0.00 0.00 0.00 0.01 0.01 0.01 0.01 0.01 0.01 0.00 0.00 0.00 0.01 0.02
0.00 0.00 0.00 0.00 0.00 0.00 0.00 0.00 0.00 0.00 0.00 0.00 0.00 0.00 0.00 0.00 0.00 0.00 0.00 0.00 0.00 0.00 0.00 0.00 0.00 0.00 0.00 0.00 0.00 0.00 0.00 0.00 0.00 0.01 0.00 0.00 0.01 0.01 0.01 0.00 0.00 0.01 0.02 0.02
0.00 0.00 0.00 0.00 0.00 0.00 0.00 0.00 0.00 0.00 0.00 0.00 0.00 0.00 0.00 0.00 0.00 0.00 0.00 0.00 0.00 0.00 0.00 0.00 0.00 0.00 0.00 0.00 0.00 0.00 0.00 0.00 0.01 0.01 0.01 0.01 0.02 0.02 0.01 0.00 0.00 0.02 0.02 0.01
0.00 0.00 0.00 0.00 0.00 0.00 0.00 0.00 0.00 0.00 0.00 0.00 0.00 0.00 0.00 0.00 0.00 0.00 0.00 0.00 0.00 0.00 0.00 0.00 0.00 0.00 0.00 0.00 0.00 0.01 0.01 0.01 0.01 0.01 0.01 0.01 0.02 0.02 0.01 0.00 0.00 0.01 0.00 0.00
0.00 0.00 0.00 0.00 0.00 0.00 0.00 0.00 0.00 0.00 0.00 0.00 0.00 0.00 0.00 0.00 0.00 0.00 0.00 0.00 0.00 0.00 0.00 0.00 0.00 0.00 0.00 0.00 0.00 0.01 0.02 0.02 0.03 0.02 0.02 0.01 0.02 0.02 0.01 0.00 0.00 0.01 0.01 0.01
0.00 0.00 0.00 0.00 0.00 0.00 0.00 0.00 0.00 0.00 0.00 0.00 0.00 0.00 0.00 0.00 0.00 0.00 0.00 0.00 0.00 0.00 0.00 0.00 0.00 0.00 0.00 0.00 0.00 0.01 0.01 0.01 0.02 0.02 0.02 0.02 0.02 0.01 0.01 0.01 0.01 0.01 0.01 0.01
0.00 0.00 0.00 0.00 0.00 0.00 0.00 0.00 0.00 0.00 0.00 0.00 0.00 0.00 0.00 0.00 0.00 0.00 0.00 0.00 0.00 0.00 0.00 0.00 0.00 0.00 0.00 0.00 0.00 0.00 0.01 0.01 0.02 0.02 0.02 0.03 0.02 0.02 0.01 0.01 0.01 0.01 0.01 0.02
0.00 0.00 0.00 0.00 0.00 0.00 0.00 0.01 0.01 0.00 0.00 0.00 0.00 0.00 0.00 0.00 0.00 0.00 0.00 0.00 0.00 0.00 0.00 0.00 0.00 0.00 0.00 0.00 0.00 0.00 0.01 0.01 0.02 0.02 0.03 0.03 0.02 0.02 0.01 0.01 0.00 0.01 0.01 0.02
0.00 0.00 0.00 0.00 0.00 0.00 0.00 0.00 0.01 0.02 0.01 0.00 0.00 0.00 0.00 0.00 0.00 0.00 0.00 0.00 0.00 0.00 0.00 0.00 0.00 0.00 0.00 0.00 0.00 0.00 0.00 0.01 0.01 0.02 0.03 0.02 0.02 0.02 0.02 0.01 0.01 0.01 0.02 0.01
0.00 0.00 0.00 0.00 0.00 0.00 0.00 0.00 0.00 0.01 0.02 0.02 0.01 0.01 0.00 0.00 0.00 0.00 0.00 0.00 0.00 0.00 0.00 0.00 0.00 0.00 0.00 0.00 0.00 0.01 0.01 0.01 0.02 0.02 0.02 0.02 0.02 0.01 0.01 0.01 0.01 0.01 0.02 0.01
0.01 0.01 0.01 0.00 0.00 0.00 0.00 0.00 0.00 0.01 0.01 0.01 0.01 0.00 0.00 0.00 0.00 0.00 0.00 0.00 0.00 0.00 0.00 0.00 0.00 0.00 0.00 0.00 0.01 0.01 0.01 0.02 0.02 0.02 0.02 0.02 0.01 0.01 0.00 0.01 0.01 0.01 0.01 0.01
0.01 0.01 0.01 0.01 0.01 0.01 0.00 0.00 0.00 0.01 0.01 0.01 0.01 0.00 0.00 0.00 0.00 0.00 0.00 0.00 0.00 0.00 0.00 0.00 0.00 0.00 0.00 0.00 0.01 0.01 0.01 0.02 0.02 0.01 0.02 0.01 0.01 0.01 0.00 0.01 0.01 0.00 0.00 0.00
0.01 0.01 0.01 0.00 0.00 0.00 0.00 0.00 0.00 0.01 0.01 0.01 0.00 0.00 0.00 0.00 0.00 0.00 0.00 0.00 0.00 0.00 0.00 0.00 0.00 0.00 0.01 0.00 0.01 0.01 0.01 0.01 0.01 0.02 0.02 0.02 0.01 0.01 0.01 0.01 0.00 0.00 0.00 0.00
0.01 0.01 0.00 0.00 0.00 0.00 0.00 0.00 0.00 0.00 0.00 0.00 0.00 0.00 0.00 0.00 0.00 0.00 0.00 0.00 0.00 0.00 0.00 0.00 0.00 0.00 0.00 0.00 0.01 0.01 0.01 0.02 0.02 0.03 0.03 0.03 0.03 0.02 0.02 0.01 0.01 0.01 0.01 0.00
0.01 0.01 0.00 0.00 0.00 0.00 0.00 0.00 0.00 0.01 0.00 0.00 0.00 0.01 0.00 0.00 0.00 0.00 0.00 0.00 0.00 0.00 0.00 0.00 0.00 0.00 0.00 0.00 0.01 0.01 0.01 0.02 0.03 0.03 0.02 0.02 0.02 0.01 0.01 0.01 0.01 0.01 0.01 0.01
0.02 0.01 0.01 0.01 0.01 0.01 0.01 0.00 0.00 0.00 0.00 0.01 0.01 0.01 0.00 0.00 0.00 0.00 0.00 0.00 0.00 0.00 0.00 0.00 0.00 0.00 0.00 0.01 0.01 0.01 0.01 0.01 0.01 0.02 0.02 0.02 0.01 0.01 0.01 0.00 0.00 0.01 0.01 0.01
0.01 0.01 0.01 0.01 0.01 0.01 0.00 0.00 0.00 0.00 0.00 0.01 0.01 0.01 0.00 0.00 0.00 0.00 0.00 0.00 0.00 0.00 0.00 0.00 0.00 0.00 0.01 0.01 0.01 0.01 0.01 0.01 0.01 0.01 0.01 0.01 0.01 0.01 0.01 0.00 0.00 0.00 0.00 0.01
0.00 0.01 0.01 0.01 0.00 0.00 0.00 0.00 0.00 0.00 0.01 0.00 0.00 0.00 0.00 0.00 0.00 0.00 0.00 0.00 0.00 0.00 0.00 0.00 0.00 0.00 0.01 0.01 0.02 0.02 0.02 0.02 0.01 0.02 0.01 0.01 0.01 0.01 0.01 0.01 0.01 0.01 0.00 0.00
0.00 0.01 0.01 0.00 0.00 0.00 0.00 0.00 0.00 0.00 0.01 0.00 0.00 0.00 0.00 0.00 0.00 0.00 0.00 0.00 0.00 0.00 0.00 0.00 0.00 0.00 0.00 0.01 0.01 0.02 0.02 0.01 0.01 0.02 0.01 0.01 0.01 0.01 0.01 0.01 0.01 0.01 0.00 0.00
0.00 0.01 0.01 0.00 0.00 0.00 0.00 0.00 0.00 0.01 0.01 0.01 0.00 0.00 0.00 0.00 0.00 0.00 0.00 0.00 0.00 0.00 0.00 0.00 0.00 0.00 0.00 0.00 0.01 0.01 0.01 0.01 0.01 0.01 0.01 0.01 0.01 0.01 0.01 0.01 0.00 0.00 0.00 0.00
0.01 0.01 0.01 0.01 0.01 0.01 0.00 0.00 0.00 0.01 0.01 0.01 0.00 0.00 0.00 0.00 0.00 0.00 0.00 0.00 0.00 0.00 0.00 0.00 0.00 0.00 0.00 0.00 0.01 0.01 0.01 0.01 0.01 0.01 0.01 0.01 0.01 0.01 0.01 0.01 0.00 0.00 0.00 0.00
0.00 0.00 0.00 0.01 0.01 0.01 0.01 0.01 0.01 0.01 0.01 0.01 0.01 0.00 0.00 0.01 0.01 0.01 0.01 0.01 0.00 0.00 0.00 0.00 0.00 0.00 0.00 0.01 0.01 0.01 0.01 0.01 0.01 0.01 0.01 0.01 0.01 0.01 0.01 0.01 0.01 0.01 0.01 0.00
0.00 0.00 0.00 0.00 0.00 0.00 0.00 0.00 0.00 0.00 0.00 0.00 0.00 0.00 0.00 0.00 0.01 0.02 0.02 0.02 0.02 0.01 0.01 0.01 0.01 0.01 0.01 0.02 0.02 0.01 0.01 0.01 0.01 0.01 0.01 0.01 0.01 0.01 0.01 0.02 0.02 0.01 0.00 0.00
0.00 0.00 0.00 0.00 0.00 0.00 0.00 0.00 0.00 0.00 0.00 0.00 0.00 0.00 0.00 0.00 0.00 0.00 0.01 0.01 0.02 0.01 0.01 0.01 0.01 0.01 0.02 0.02 0.02 0.01 0.01 0.01 0.01 0.01 0.01 0.01 0.01 0.01 0.01 0.01 0.01 0.01 0.01 0.01
0.00 0.00 0.00 0.00 0.00 0.00 0.00 0.00 0.00 0.00 0.00 0.00 0.00 0.00 0.00 0.00 0.00 0.00 0.00 0.00 0.00 0.00 0.00 0.01 0.01 0.01 0.02 0.02 0.02 0.02 0.01 0.01 0.01 0.02 0.03 0.02 0.02 0.02 0.02 0.01 0.01 0.01 0.01 0.01
MSLP
1014.67 1015.30 1015.94 1016.57 1017.16 1017.70 1018.17 1018.56 1018.86 1019.08 1019.19 1019.21 1019.14 1018.98 1018.75 1018.47 1018.17 1017.88 1017.61 1017.40 1017.26 1017.21 1017.23 1017.32 1017.46 1017.62 1017.79 1017.95 1018.08 1018.19 1018.29 1018.37 1018.45 1018.54 1018.63 1018.71 1018.77 1018.80 1018.79 1018.73 1018.63 1018.51 1018.40 1018.32
1015.26 1015.80 1016.33 1016.84 1017.31 1017.75 1018.16 1018.52 1018.82 1019.06 1019.22 1019.28 1019.23 1019.07 1018.81 1018.48 1018.11 1017.75 1017.42 1017.17 1017.02 1016.97 1017.03 1017.17 1017.36 1017.58 1017.79 1017.98 1018.15 1018.28 1018.39 1018.50 1018.60 1018.71 1018.83 1018.94 1019.03 1019.07 1019.07 1019.00 1018.88 1018.73 1018.58 1018.46
1015.83 1016.28 1016.70 1017.09 1017.45 1017.80 1018.14 1018.48 1018.79 1019.05 1019.24 1019.33 1019.29 1019.13 1018.84 1018.45 1018.01 1017.58 1017.19 1016.89 1016.71 1016.67 1016.75 1016.93 1017.17 1017.44 1017.70 1017.94 1018.14 1018.31 1018.45 1018.58 1018.71 1018.85 1018.99 1019.12 1019.23 1019.29 1019.29 1019.22 1019.10 1018.94 1018.78 1018.64
1016.38 1016.75 1017.06 1017.35 1017.61 1017.89 1018.18 1018.49 1018.81 1019.09 1019.31 1019.42 1019.39 1019.20 1018.88 1018.43 1017.92 1017.41 1016.95 1016.60 1016.38 1016.32 1016.40 1016.60 1016.88 1017.19 1017.50 1017.78 1018.03 1018.23 1018.41 1018.57 1018.73 1018.89 1019.05 1019.19 1019.31 1019.38 1019.40 1019.35 1019.24 1019.10 1018.96 1018.83
1016.90 1017.18 1017.41 1017.61 1017.81 1018.03 1018.29 1018.59 1018.92 1019.22 1019.46 1019.58 1019.54 1019.34 1018.97 1018.46 1017.88 1017.29 1016.76 1016.34 1016.07 1015.97 1016.03 1016.23 1016.51 1016.84 1017.18 1017.49 1017.77 1018.01 1018.22 1018.40 1018.58 1018.76 1018.93 1019.09 1019.22 1019.31 1019.34 1019.32 1019.26 1019.17 1019.08 1019.00
1017.37 1017.58 1017.74 1017.88 1018.03 1018.21 1018.46 1018.76 1019.10 1019.42 1019.67 1019.79 1019.75 1019.53 1019.12 1018.56 1017.92 1017.26 1016.65 1016.16 1015.83 1015.68 1015.69 1015.85 1016.11 1016.43 1016.76 1017.09 1017.38 1017.63 1017.86 1018.06 1018.25 1018.44 1018.62 1018.79 1018.93 1019.03 1019.10 1019.13 1019.12 1019.11 1019.09 1019.09
1017.75 1017.91 1018.03 1018.12 1018.24 1018.41 1018.65 1018.96 1019.31 1019.64 1019.90 1020.03 1019.99 1019.74 1019.31 1018.72 1018.04 1017.33 1016.67 1016.12 1015.73 1015.50 1015.45 1015.55 1015.75 1016.02 1016.32 1016.62 1016.89 1017.14 1017.37 1017.57 1017.77 1017.95 1018.13 1018.30 1018.44 1018.57 1018.68 1018.76 1018.83 1018.89 1018.97 1019.07
1018.02 1018.14 1018.22 1018.30 1018.40 1018.57 1018.82 1019.13 1019.49 1019.83 1020.10 1020.23 1020.19 1019.96 1019.52 1018.93 1018.24 1017.51 1016.83 1016.24 1015.79 1015.50 1015.38 1015.39 1015.51 1015.71 1015.94 1016.17 1016.40 1016.62 1016.82 1017.00 1017.18 1017.36 1017.52 1017.69 1017.84 1017.98 1018.12 1018.26 1018.40 1018.56 1018.73 1018.93
1018.16 1018.25 1018.32 1018.39 1018.49 1018.67 1018.92 1019.24 1019.60 1019.94 1020.22 1020.36 1020.33 1020.11 1019.71 1019.15 1018.48 1017.78 1017.11 1016.52 1016.04 1015.71 1015.51 1015.44 1015.47 1015.57 1015.70 1015.86 1016.01 1016.17 1016.32 1016.47 1016.62 1016.76 1016.91 1017.06 1017.21 1017.37 1017.54 1017.72 1017.93 1018.16 1018.42 1018.70
1018.17 1018.25 1018.31 1018.39 1018.50 1018.68 1018.94 1019.27 1019.62 1019.96 1020.23 1020.38 1020.38 1020.20 1019.85 1019.35 1018.76 1018.13 1017.51 1016.95 1016.48 1016.12 1015.88 1015.73 1015.67 1015.66 1015.69 1015.75 1015.82 1015.90 1015.99 1016.08 1016.18 1016.29 1016.41 1016.54 1016.68 1016.84 1017.02 1017.24 1017.49 1017.79 1018.11 1018.45
1018.08 1018.17 1018.24 1018.33 1018.46 1018.66 1018.92 1019.23 1019.57 1019.90 1020.16 1020.32 1020.33 1020.20 1019.93 1019.52 1019.04 1018.51 1017.99 1017.50 1017.08 1016.73 1016.46 1016.26 1016.11 1016.01 1015.95 1015.91 1015.89 1015.89 1015.91 1015.94 1015.99 1016.05 1016.13 1016.23 1016.36 1016.51 1016.70 1016.93 1017.21 1017.53 1017.88 1018.26
1017.96 1018.07 1018.17 1018.28 1018.44 1018.64 1018.90 1019.20 1019.51 1019.81 1020.05 1020.20 1020.24 1020.17 1019.97 1019.67 1019.31 1018.91 1018.50 1018.12 1017.76 1017.45 1017.19 1016.96 1016.76 1016.59 1016.44 1016.32 1016.22 1016.15 1016.10 1016.08 1016.08 1016.10 1016.14 1016.21 1016.30 1016.44 1016.62 1016.85 1017.13 1017.46 1017.82 1018.21
1017.89 1018.02 1018.15 1018.30 1018.48 1018.69 1018.94 1019.22 1019.50 1019.75 1019.96 1020.10 1020.16 1020.12 1020.00 1019.81 1019.57 1019.30 1019.02 1018.75 1018.48 1018.23 1017.99 1017.76 1017.53 1017.32 1017.12 1016.93 1016.78 1016.65 1016.55 1016.48 1016.44 1016.42 1016.43 1016.47 1016.54 1016.65 1016.81 1017.02 1017.29 1017.61 1017.97 1018.34
1017.92 1018.09 1018.26 1018.44 1018.64 1018.86 1019.09 1019.34 1019.57 1019.78 1019.94 1020.05 1020.11 1020.10 1020.04 1019.94 1019.81 1019.67 1019.51 1019.35 1019.17 1018.99 1018.79 1018.57 1018.34 1018.11 1017.88 1017.67 1017.48 1017.32 1017.19 1017.09 1017.02 1016.98 1016.96 1016.97 1017.02 1017.10 1017.24 1017.43 1017.68 1017.97 1018.31 1018.66
1018.10 1018.30 1018.51 1018.72 1018.94 1019.15 1019.36 1019.56 1019.74 1019.89 1020.00 1020.07 1020.11 1020.12 1020.10 1020.07 1020.04 1019.99 1019.94 1019.88 1019.79 1019.67 1019.52 1019.33 1019.12 1018.89 1018.66 1018.44 1018.24 1018.07 1017.94 1017.83 1017.76 1017.70 1017.67 1017.66 1017.68 1017.74 1017.85 1018.01 1018.23 1018.51 1018.81 1019.13
1018.41 1018.64 1018.88 1019.11 1019.32 1019.53 1019.70 1019.85 1019.97 1020.05 1020.10 1020.13 1020.15 1020.16 1020.17 1020.20 1020.23 1020.27 1020.30 1020.32 1020.31 1020.25 1020.14 1019.99 1019.81 1019.60 1019.39 1019.19 1019.00 1018.85 1018.73 1018.63 1018.56 1018.50 1018.46 1018.44 1018.44 1018.48 1018.56 1018.70 1018.89 1019.14 1019.41 1019.71
1018.81 1019.06 1019.31 1019.54 1019.74 1019.91 1020.04 1020.13 1020.18 1020.20 1020.20 1020.18 1020.18 1020.19 1020.23 1020.30 1020.39 1020.50 1020.60 1020.68 1020.73 1020.73 1020.67 1020.56 1020.41 1020.24 1020.06 1019.89 1019.73 1019.61 1019.51 1019.43 1019.37 1019.32 1019.28 1019.25 1019.24 1019.26 1019.32 1019.43 1019.59 1019.80 1020.05 1020.33
1019.23 1019.47 1019.71 1019.91 1020.08 1020.20 1020.28 1020.30 1020.29 1020.26 1020.21 1020.17 1020.15 1020.17 1020.24 1020.36 1020.51 1020.67 1020.84 1020.99 1021.09 1021.14 1021.13 1021.06 1020.95 1020.81 1020.67 1020.54 1020.42 1020.33 1020.26 1020.21 1020.17 1020.14 1020.09 1020.06 1020.03 1020.03 1020.06 1020.14 1020.28 1020.46 1020.68 1020.92
1019.57 1019.79 1019.99 1020.15 1020.26 1020.32 1020.33 1020.30 1020.23 1020.15 1020.08 1020.03 1020.03 1020.08 1020.19 1020.37 1020.58 1020.81 1021.05 1021.25 1021.41 1021.51 1021.54 1021.52 1021.45 1021.36 1021.25 1021.16 1021.08 1021.03 1020.99 1020.97 1020.95 1020.92 1020.88 1020.84 1020.80 1020.78 1020.78 1020.83 1020.93 1021.07 1021.26 1021.47
1019.78 1019.95 1020.09 1020.18 1020.23 1020.22 1020.17 1020.08 1019.97 1019.87 1019.79 1019.76 1019.79 1019.90 1020.08 1020.33 1020.62 1020.93 1021.23 1021.50 1021.72 1021.87 1021.95 1021.97 1021.95 1021.89 1021.83 1021.77 1021.73 1021.70 1021.70 1021.70 1021.69 1021.67 1021.64 1021.59 1021.54 1021.49 1021.47 1021.48 1021.54 1021.65 1021.79 1021.97
1019.82 1019.93 1020.00 1020.01 1019.98 1019.91 1019.80 1019.67 1019.54 1019.43 1019.38 1019.39 1019.48 1019.66 1019.92 1020.25 1020.63 1021.02 1021.40 1021.73 1022.01 1022.22 1022.35 1022.42 1022.43 1022.41 1022.38 1022.36 1022.34 1022.35 1022.36 1022.37 1022.38 1022.37 1022.34 1022.29 1022.23 1022.16 1022.12 1022.10 1022.12 1022.19 1022.29 1022.43
1019.71 1019.74 1019.73 1019.67 1019.57 1019.44 1019.29 1019.13 1019.01 1018.92 1018.91 1018.98 1019.14 1019.40 1019.75 1020.16 1020.62 1021.09 1021.54 1021.94 1022.28 1022.53 1022.71 1022.82 1022.87 1022.88 1022.88 1022.88 1022.89 1022.92 1022.95 1022.97 1022.99 1022.99 1022.96 1022.91 1022.84 1022.77 1022.71 1022.67 1022.66 1022.69 1022.77 1022.87
1019.48 1019.44 1019.36 1019.24 1019.08 1018.91 1018.74 1018.59 1018.48 1018.43 1018.47 1018.60 1018.84 1019.17 1019.60 1020.09 1020.61 1021.14 1021.65 1022.10 1022.48 1022.77 1022.98 1023.12 1023.21 1023.25 1023.28 1023.30 1023.33 1023.36 1023.41 1023.45 1023.47 1023.48 1023.46 1023.42 1023.36 1023.29 1023.22 1023.17 1023.15 1023.17 1023.21 1023.29
1019.20 1019.09 1018.96 1018.79 1018.61 1018.42 1018.25 1018.12 1018.05 1018.05 1018.14 1018.33 1018.63 1019.02 1019.49 1020.03 1020.59 1021.15 1021.69 1022.16 1022.56 1022.88 1023.12 1023.28 1023.39 1023.46 1023.51 1023.55 1023.60 1023.65 1023.70 1023.76 1023.80 1023.82 1023.82 1023.79 1023.75 1023.69 1023.64 1023.59 1023.57 1023.58 1023.62 1023.67
1018.92 1018.77 1018.60 1018.41 1018.23 1018.05 1017.91 1017.81 1017.78 1017.83 1017.97 1018.21 1018.54 1018.96 1019.45 1019.99 1020.55 1021.11 1021.63 1022.10 1022.51 1022.83 1023.08 1023.26 1023.39 1023.48 1023.55 1023.61 1023.68 1023.75 1023.82 1023.89 1023.94 1023.99 1024.01 1024.00 1023.98 1023.95 1023.92 1023.90 1023.90 1023.91 1023.95 1024.01
1018.70 1018.52 1018.33 1018.15 1017.98 1017.84 1017.74 1017.69 1017.71 1017.80 1017.97 1018.23 1018.56 1018.97 1019.44 1019.95 1020.47 1020.99 1021.47 1021.91 1022.29 1022.61 1022.86 1023.05 1023.20 1023.31 1023.41 1023.49 1023.58 1023.67 1023.77 1023.85 1023.93 1023.99 1024.04 1024.06 1024.08 1024.08 1024.07 1024.08 1024.10 1024.14 1024.20 1024.26
Thickness
5740 5734 5729 5733 5736 5735 5731 5726 5724 5729 5734 5729 5728 5731 5737 5739 5737 5738 5739 5740 5739 5738 5738 5737 5734 5732 5730 5727 5724 5722 5719 5716 5713 5710 5707 5705 5703 5701 5700 5698 5697 5695 5694 5694
5729 5726 5734 5736 5733 5729 5727 5722 5723 5726 5729 5728 5727 5730 5739 5740 5738 5739 5739 5739 5738 5736 5735 5733 5731 5730 5728 5725 5722 5720 5717 5714 5711 5707 5705 5702 5700 5698 5696 5693 5692 5691 5689 5688
5723 5729 5733 5728 5724 5722 5722 5721 5722 5721 5722 5725 5722 5726 5735 5739 5739 5738 5738 5738 5739 5735 5733 5732 5729 5727 5725 5723 5720 5717 5714 5711 5707 5705 5702 5698 5695 5693 5691 5689 5687 5686 5684 5683
5724 5728 5725 5722 5721 5722 5717 5725 5722 5718 5714 5716 5717 5712 5731 5735 5733 5734 5735 5735 5735 5734 5733 5730 5728 5725 5723 5720 5719 5716 5712 5709 5705 5702 5699 5695 5691 5689 5687 5686 5684 5682 5680 5678
5719 5723 5720 5717 5722 5723 5721 5723 5720 5716 5714 5712 5715 5710 5727 5732 5728 5732 5735 5735 5734 5734 5732 5729 5727 5724 5722 5719 5717 5713 5710 5706 5703 5700 5696 5692 5690 5687 5685 5682 5679 5678 5676 5674
5721 5725 5724 5723 5724 5723 5720 5717 5713 5713 5711 5699 5712 5708 5716 5731 5731 5733 5735 5735 5734 5733 5731 5728 5727 5723 5720 5717 5713 5709 5706 5702 5699 5696 5694 5691 5687 5683 5681 5677 5675 5674 5672 5670
5710 5716 5721 5724 5715 5714 5714 5707 5696 5694 5694 5701 5712 5706 5717 5730 5732 5730 5730 5732 5732 5731 5728 5725 5722 5719 5716 5713 5710 5707 5703 5699 5696 5693 5691 5689 5685 5681 5678 5675 5672 5670 5668 5666
5699 5701 5714 5718 5716 5712 5712 5710 5695 5686 5689 5701 5704 5704 5721 5728 5729 5729 5729 5729 5728 5727 5726 5722 5720 5717 5714 5711 5708 5705 5701 5697 5694 5691 5688 5686 5682 5678 5676 5673 5670 5668 5665 5663
5701 5701 5712 5714 5717 5716 5706 5706 5712 5702 5697 5691 5703 5712 5719 5724 5722 5723 5724 5723 5722 5723 5722 5720 5718 5715 5712 5710 5707 5704 5700 5695 5691 5688 5685 5682 5679 5675 5672 5670 5667 5664 5662 5659
5705 5697 5705 5708 5710 5707 5711 5710 5702 5694 5682 5682 5694 5701 5708 5712 5715 5718 5719 5719 5719 5720 5719 5717 5715 5712 5710 5708 5705 5702 5697 5693 5689 5685 5682 5678 5674 5671 5668 5665 5662 5660 5657 5654
5702 5695 5696 5699 5698 5700 5699 5698 5698 5697 5693 5683 5682 5696 5715 5714 5714 5714 5716 5716 5716 5715 5715 5714 5711 5709 5706 5704 5701 5697 5694 5690 5686 5682 5679 5675 5671 5667 5664 5661 5658 5655 5652 5649
5694 5694 5690 5696 5703 5703 5703 5701 5698 5686 5686 5688 5685 5695 5715 5713 5713 5712 5711 5711 5712 5711 5711 5710 5708 5705 5701 5699 5696 5693 5690 5687 5683 5678 5675 5672 5667 5663 5659 5657 5654 5651 5648 5645
5687 5686 5680 5682 5686 5691 5692 5695 5695 5694 5689 5684 5679 5690 5709 5708 5707 5707 5705 5705 5706 5705 5705 5704 5702 5699 5696 5694 5691 5688 5686 5683 5679 5675 5671 5667 5663 5659 5655 5652 5649 5646 5643 5640
5684 5685 5681 5676 5684 5688 5686 5686 5688 5686 5682 5683 5686 5691 5699 5699 5699 5700 5700 5700 5700 5699 5698 5697 5694 5692 5690 5688 5686 5683 5681 5678 5674 5670 5666 5662 5658 5655 5651 5648 5644 5641 5638 5634
5678 5678 5682 5683 5684 5682 5682 5682 5682 5681 5685 5683 5689 5690 5694 5696 5696 5696 5696 5694 5692 5691 5690 5690 5688 5687 5684 5682 5680 5678 5675 5673 5669 5665 5660 5657 5653 5649 5645 5642 5638 5635 5631 5628
5672 5671 5674 5673 5676 5675 5674 5679 5680 5679 5680 5682 5684 5684 5693 5694 5693 5690 5690 5687 5685 5685 5684 5684 5683 5681 5679 5677 5674 5672 5669 5667 5663 5659 5655 5651 5647 5643 5638 5635 5632 5628 5624 5621
5664 5664 5661 5665 5669 5666 5666 5678 5678 5675 5678 5678 5676 5682 5687 5684 5683 5683 5683 5682 5681 5680 5679 5678 5677 5676 5674 5672 5669 5665 5663 5660 5657 5653 5648 5644 5640 5636 5632 5629 5625 5621 5618 5615
5659 5657 5656 5657 5657 5648 5673 5680 5677 5673 5674 5677 5676 5679 5679 5679 5679 5679 5679 5677 5676 5674 5673 5672 5671 5669 5668 5666 5663 5660 5656 5653 5650 5646 5642 5638 5634 5629 5625 5622 5618 5615 5612 5609
5655 5652 5648 5648 5648 5656 5666 5669 5668 5666 5667 5674 5672 5672 5672 5672 5670 5673 5673 5671 5670 5668 5667 5665 5663 5662 5660 5658 5655 5652 5649 5646 5642 5639 5635 5631 5627 5623 5618 5615 5612 5609 5607 5603
5644 5647 5644 5642 5638 5643 5659 5665 5666 5661 5657 5668 5667 5665 5664 5662 5660 5666 5666 5663 5661 5660 5658 5656 5654 5653 5651 5649 5648 5645 5642 5638 5635 5632 5629 5625 5621 5617 5613 5610 5606 5603 5600 5597
5636 5635 5635 5637 5636 5648 5658 5657 5655 5645 5654 5661 5661 5659 5657 5656 5658 5657 5656 5653 5651 5650 5648 5646 5645 5644 5642 5641 5639 5637 5635 5631 5628 5625 5622 5618 5615 5611 5608 5604 5600 5597 5594 5591
5636 5634 5634 5634 5630 5638 5650 5648 5646 5651 5656 5653 5652 5651 5650 5649 5647 5646 5645 5643 5641 5639 5638 5637 5635 5634 5632 5631 5630 5629 5625 5623 5620 5617 5614 5611 5608 5604 5601 5596 5593 5590 5587 5583
5632 5636 5637 5636 5638 5643 5643 5644 5645 5646 5645 5645 5644 5643 5641 5638 5637 5636 5635 5634 5633 5631 5629 5628 5626 5624 5623 5622 5621 5619 5616 5614 5611 5608 5605 5603 5600 5597 5593 5590 5587 5583 5580 5577
5627 5626 5626 5627 5633 5635 5634 5635 5635 5636 5636 5637 5636 5634 5633 5631 5630 5628 5627 5626 5625 5623 5621 5619 5616 5615 5614 5612 5611 5609 5607 5604 5602 5600 5598 5595 5592 5589 5586 5582 5580 5577 5574 5570
5619 5616 5618 5621 5626 5626 5627 5627 5628 5627 5628 5627 5626 5625 5624 5622 5621 5620 5620 5618 5617 5615 5613 5610 5608 5606 5605 5603 5601 5599 5597 5596 5594 5592 5590 5587 5583 5580 5577 5574 5571 5569 5566 5563
5613 5611 5612 5616 5622 5621 5622 5623 5621 5619 5618 5618 5617 5616 5615 5614 5612 5612 5611 5610 5608 5606 5604 5602 5600 5598 5596 5593 5591 5589 5587 5586 5586 5584 5581 5577 5573 5570 5568 5564 5561 5555 5553 5549